User: anonymous   Login
Location: Clatteringshaws Loch
(55.0508°N, 4.2860°W)
Time: 12:37:22
(UTC+01:00)
Language:

ALOS - Orbit

View from above orbital plane
View from above orbital plane
View from above satellite
View from above satellite

Ground track
Ground track

The orbit data is extracted from the following two-line orbital elements,

1 28931U 06002A   16208.56348821  .00000256  00000-0  59502-4 0  9993
2 28931  97.8812 245.5588 0000495  75.8100 284.3159 14.62217562559878
Epoch (UTC): 26 July 2016 13:31:25
Eccentricity: 0.0000495
inclination: 97.8812°
perigee height: 685 km
apogee height: 686 km
right ascension of ascending node: 245.5588°
argument of perigee: 75.8100°
revolutions per day: 14.62217562
mean anomaly at epoch: 284.3159°
orbit number at epoch: 55987

The dashed part of the orbit path shows where the satellite is in the earth's shadow,  

DLR